GW0718 Weather Reports


time (UTC)temp
C
wind
direction
speed
KPH
gust
KPH
rain 1hr
cm
rain 24hr
cm
rain mn
cm
humidity
%
barometer
mb
20260503013827 15 92 9.7 11.3 0.00 0.00 0.00 44 1014.7
20260503013325 16 74 9.7 9.7 0.00 0.00 0.00 42 1014.6
20260503012822 16 93 9.7 11.3 0.00 0.00 0.00 40 1015.0
20260503012319 17 106 6.4 8.0 0.00 0.00 0.00 40 1014.9
20260503011816 16 118 9.7 16.1 0.00 0.00 0.00 40 1014.9
20260503011314 17 103 9.7 16.1 0.00 0.00 0.00 40 1014.9
20260503010810 17 111 8.0 11.3 0.00 0.00 0.00 39 1014.9
20260503010307 18 91 6.4 8.0 0.00 0.00 0.00 39 1014.9
20260503005804 18 75 4.8 6.4 0.00 0.00 0.00 37 1015.0
20260503005304 18 127 4.8 9.7 0.00 0.00 0.00 37 1014.9
20260503004757 18 161 6.4 9.7 0.00 0.00 0.00 37 1015.2
20260503004255 17 120 11.3 14.5 0.00 0.00 0.00 38 1015.1
20260503003752 17 97 6.4 9.7 0.00 0.00 0.00 39 1015.2
20260503003249 17 59 8.0 9.7 0.00 0.00 0.00 41 1015.2
20260503002745 17 44 9.7 16.1 0.00 0.00 0.00 40 1015.3
20260503002242 17 28 4.8 8.0 0.00 0.00 0.00 41 1015.6
20260503001739 16 70 9.7 17.7 0.00 0.00 0.00 41 1015.7
20260503001235 17 43 4.8 6.4 0.00 0.00 0.00 41 1015.6
20260503000733 17 41 16.1 17.7 0.00 0.00 0.00 41 1015.7
20260503000230 17 29 11.3 20.9 0.00 0.00 0.00 41 1015.7
20260502235727 17 71 3.2 11.3 0.00 0.00 0.00 38 1015.3
20260502235225 18 55 3.2 14.5 0.00 0.00 0.00 38 1015.6
20260502234721 18 13 6.4 6.4 0.00 0.00 0.00 37 1015.4
20260502234218 18 11 3.2 16.1 0.00 0.00 0.00 38 1015.7
20260502233714 17 349 6.4 14.5 0.00 0.00 0.00 40 1015.4
20260502233211 17 18 6.4 16.1 0.00 0.00 0.00 39 1015.8
20260502232706 17 1 9.7 22.5 0.00 0.00 0.00 40 1015.7
20260502232204 17 40 4.8 19.3 0.00 0.00 0.00 40 1015.7
20260502231700 17 42 9.7 20.9 0.00 0.00 0.00 40 1016.0
20260502231159 17 23 12.9 20.9 0.00 0.00 0.00 40 1015.9
20260502230657 17 48 4.8 16.1 0.00 0.00 0.00 39 1016.1
20260502230155 18 57 11.3 14.5 0.00 0.00 0.00 38 1016.0
20260502225650 17 58 8.0 17.7 0.00 0.00 0.00 39 1016.1
20260502225148 17 72 6.4 8.0 0.00 0.00 0.00 38 1016.0
20260502224644 17 49 12.9 22.5 0.00 0.00 0.00 39 1016.2
20260502224141 17 31 14.5 22.5 0.00 0.00 0.00 39 1016.3
20260502223639 18 57 17.7 22.5 0.00 0.00 0.00 39 1016.1
20260502223137 17 46 14.5 19.3 0.00 0.00 0.00 40 1016.3
20260502222634 17 53 3.2 20.9 0.00 0.00 0.00 40 1016.7
20260502222131 17 273 3.2 6.4 0.00 0.00 0.00 39 1016.4
20260502221626 17 277 6.4 12.9 0.00 0.00 0.00 39 1016.8
20260502221123 17 307 3.2 9.7 0.00 0.00 0.00 38 1017.1
20260502220619 17 21 11.3 22.5 0.00 0.00 0.00 39 1017.1
20260502220110 18 335 12.9 27.4 0.00 0.00 0.00 38 1017.1
20260502215608 18 41 6.4 9.7 0.00 0.00 0.00 38 1017.0
20260502215104 17 46 3.2 9.7 0.00 0.00 0.00 39 1017.0
20260502214602 16 28 9.7 19.3 0.00 0.00 0.00 41 1017.3
20260502214059 16 341 12.9 17.7 0.00 0.00 0.00 40 1017.3
20260502213556 17 60 14.5 22.5 0.00 0.00 0.00 39 1017.2
20260502213053 17 100 9.7 17.7 0.00 0.00 0.00 38 1017.2
20260502212552 17 25 8.0 17.7 0.00 0.00 0.00 39 1017.5
20260502212049 17 28 14.5 22.5 0.00 0.00 0.00 39 1017.4
20260502211545 17 354 9.7 17.7 0.00 0.00 0.00 39 1017.5
20260502211042 16 37 6.4 16.1 0.00 0.00 0.00 39 1017.9
20260502210539 16 35 11.3 14.5 0.00 0.00 0.00 40 1017.9
20260502210036 16 264 1.6 6.4 0.00 0.00 0.00 39 1017.5
20260502205533 16 298 3.2 9.7 0.00 0.00 0.00 41 1017.7
20260502205030 16 351 11.3 11.3 0.00 0.00 0.00 40 1017.5
20260502204527 17 56 6.4 14.5 0.00 0.00 0.00 39 1017.9
20260502204025 17 8 6.4 9.7 0.00 0.00 0.00 39 1017.7
20260502203521 16 44 16.1 16.1 0.00 0.00 0.00 42 1017.7
20260502203018 16 48 9.7 17.7 0.00 0.00 0.00 41 1017.9
20260502202514 16 41 17.7 25.7 0.00 0.00 0.00 41 1017.9
20260502202013 16 359 14.5 24.1 0.00 0.00 0.00 40 1018.0
20260502201508 16 35 11.3 19.3 0.00 0.00 0.00 39 1018.1
20260502201005 16 108 3.2 9.7 0.00 0.00 0.00 39 1018.1
20260502200501 16 14 11.3 19.3 0.00 0.00 0.00 41 1018.0
20260502195959 16 9 16.1 29.0 0.00 0.00 0.00 41 1018.3
20260502195456 16 331 8.0 20.9 0.00 0.00 0.00 42 1018.2
20260502194952 17 44 4.8 9.7 0.00 0.00 0.00 39 1018.4
20260502194449 15 351 6.4 14.5 0.00 0.00 0.00 41 1018.5
20260502193944 15 347 8.0 16.1 0.00 0.00 0.00 41 1018.2
20260502193443 16 358 4.8 17.7 0.00 0.00 0.00 40 1018.4
20260502192938 16 12 8.0 12.9 0.00 0.00 0.00 41 1018.4
20260502192435 16 54 9.7 17.7 0.00 0.00 0.00 41 1018.8
20260502191932 16 10 6.4 17.7 0.00 0.00 0.00 42 1018.7
20260502191430 15 78 9.7 16.1 0.00 0.00 0.00 42 1018.9
20260502190927 15 8 17.7 22.5 0.00 0.00 0.00 44 1018.8
20260502190424 15 40 9.7 19.3 0.00 0.00 0.00 43 1018.5
20260502185920 15 11 20.9 20.9 0.00 0.00 0.00 46 1018.9
20260502185415 15 15 9.7 9.7 0.00 0.00 0.00 45 1019.3
20260502184912 15 7 25.7 27.4 0.00 0.00 0.00 45 1019.0
20260502184408 15 13 14.5 29.0 0.00 0.00 0.00 45 1019.0
20260502183904 15 346 14.5 27.4 0.00 0.00 0.00 47 1019.1
20260502183401 15 12 17.7 29.0 0.00 0.00 0.00 48 1019.1
20260502182856 15 12 14.5 25.7 0.00 0.00 0.00 48 1019.0
20260502182352 14 348 22.5 29.0 0.00 0.00 0.00 49 1019.2
20260502181849 15 0 20.9 27.4 0.00 0.00 0.00 50 1019.0
20260502181348 15 16 19.3 33.8 0.00 0.00 0.00 50 1019.0
20260502180845 14 4 19.3 25.7 0.00 0.00 0.00 48 1019.3
20260502180341 14 1 24.1 30.6 0.00 0.00 0.00 47 1019.1
20260502170300 14 347 20.9 25.7 0.00 0.00 0.00 51 1019.2
20260502164249 15 7 25.7 30.6 0.00 0.00 0.00 50 1019.3
20260502163744 13 6 22.5 29.0 0.00 0.00 0.00 50 1019.2
20260502163241 13 9 16.1 38.6 0.00 0.00 0.00 50 1019.2
20260502162738 14 0 16.1 29.0 0.00 0.00 0.00 51 1019.2
20260502162234 14 341 14.5 32.2 0.00 0.00 0.00 51 1019.2
20260502161731 14 6 14.5 27.4 0.00 0.00 0.00 50 1019.1
20260502161227 15 303 17.7 27.4 0.00 0.00 0.00 50 1019.1
20260502160726 13 331 25.7 27.4 0.00 0.00 0.00 50 1019.1
20260502160225 13 327 27.4 30.6 0.00 0.00 0.00 50 1018.9
20260502152148 13 327 9.7 27.4 0.00 0.00 0.00 54 1019.1
20260502151646 12 277 4.8 30.6 0.00 0.00 0.00 54 1019.2
20260502151143 12 308 17.7 29.0 0.00 0.00 0.00 54 1019.2
20260502150640 12 354 9.7 30.6 0.00 0.00 0.00 53 1019.1
20260502150136 12 308 11.3 27.4 0.00 0.00 0.00 53 1019.0
20260502130525 8 270 4.8 6.4 0.00 0.00 0.00 62 1018.5
20260502123509 8 274 3.2 6.4 0.00 0.00 0.00 59 1018.1
20260502123005 8 296 8.0 9.7 0.00 0.00 0.00 59 1018.1
20260502122501 8 344 4.8 9.7 0.00 0.00 0.00 61 1017.9
20260502121959 8 320 8.0 9.7 0.00 0.00 0.00 61 1018.2
20260502121456 7 296 9.7 9.7 0.00 0.00 0.00 63 1018.0
20260502120954 7 309 8.0 9.7 0.00 0.00 0.00 63 1017.9
20260502120450 7 292 9.7 11.3 0.00 0.00 0.00 62 1018.0
20260502115444 7 289 8.0 11.3 0.00 0.00 0.00 64 1018.1
20260502114940 7 286 6.4 11.3 0.00 0.00 0.00 64 1018.0
20260502114437 7 299 8.0 12.9 0.00 0.00 0.00 63 1018.0
20260502113934 7 298 9.7 14.5 0.00 0.00 0.00 64 1017.9
20260502113432 6 291 9.7 11.3 0.00 0.00 0.00 64 1017.9
20260502112930 7 280 9.7 12.9 0.00 0.00 0.00 63 1018.0
20260502112427 7 298 8.0 11.3 0.00 0.00 0.00 63 1018.1
20260502111925 7 325 4.8 9.7 0.00 0.00 0.00 63 1017.9
20260502111422 7 307 9.7 16.1 0.00 0.00 0.00 63 1017.8
20260502110919 7 295 8.0 14.5 0.00 0.00 0.00 62 1018.1
20260502110417 7 327 12.9 14.5 0.00 0.00 0.00 62 1017.9
20260502105914 7 324 11.3 16.1 0.00 0.00 0.00 61 1017.7
20260502105411 8 325 9.7 14.5 0.00 0.00 0.00 60 1017.8
20260502104909 7 328 11.3 16.1 0.00 0.00 0.00 61 1017.5
20260502104406 9 339 14.5 16.1 0.00 0.00 0.00 56 1017.5
20260502103903 9 12 9.7 14.5 0.00 0.00 0.00 55 1017.3
20260502103401 9 29 9.7 20.9 0.00 0.00 0.00 56 1017.3
20260502102857 9 39 9.7 14.5 0.00 0.00 0.00 54 1017.1
20260502102354 10 55 11.3 17.7 0.00 0.00 0.00 52 1017.1
20260502101852 10 37 17.7 17.7 0.00 0.00 0.00 53 1017.2
20260502101350 10 15 11.3 14.5 0.00 0.00 0.00 52 1017.0
20260502100848 10 44 9.7 11.3 0.00 0.00 0.00 53 1017.1
20260502100347 10 35 9.7 12.9 0.00 0.00 0.00 52 1017.0
20260502091320 10 320 6.4 9.7 0.00 0.00 0.00 48 1016.0
20260502090818 9 328 6.4 9.7 0.00 0.00 0.00 50 1015.9
20260502090315 9 340 8.0 9.7 0.00 0.00 0.00 51 1015.9
20260502071210 12 203 9.7 16.1 0.00 0.00 0.00 39 1014.2
20260502070708 12 219 11.3 17.7 0.00 0.00 0.00 37 1014.7
20260502070205 12 215 8.0 16.1 0.00 0.00 0.00 36 1014.5
20260502065704 12 201 8.0 11.3 0.00 0.00 0.00 37 1014.6
20260502065201 15 198 6.4 9.7 0.00 0.00 0.00 32 1014.6
20260502064700 15 211 6.4 9.7 0.00 0.00 0.00 31 1014.7
20260502064156 14 211 8.0 11.3 0.00 0.00 0.00 34 1014.6
20260502063654 13 255 14.5 16.1 0.00 0.00 0.00 35 1014.6
20260502063152 12 256 11.3 14.5 0.00 0.00 0.00 39 1014.7
20260502062649 12 239 8.0 8.0 0.00 0.00 0.00 39 1014.7
20260502062146 12 251 6.4 6.4 0.00 0.00 0.00 39 1014.6
20260502061644 12 198 6.4 8.0 0.00 0.00 0.00 37 1014.3
20260502061142 13 204 6.4 6.4 0.00 0.00 0.00 36 1014.7
20260502060642 13 233 6.4 11.3 0.00 0.00 0.00 35 1014.5
20260502060139 12 221 8.0 8.0 0.00 0.00 0.00 37 1014.3
20260502055637 11 226 4.8 6.4 0.00 0.00 0.00 45 1014.7
20260502055134 12 245 6.4 9.7 0.00 0.00 0.00 40 1014.5
20260502054633 13 245 8.0 8.0 0.00 0.00 0.00 35 1014.6
20260502054130 14 246 6.4 6.4 0.00 0.00 0.00 33 1014.5
20260502053627 13 232 3.2 4.8 0.00 0.00 0.00 35 1014.8
20260502053125 12 267 4.8 8.0 0.00 0.00 0.00 39 1014.5
20260502052623 11 256 6.4 9.7 0.00 0.00 0.00 43 1014.7
20260502052121 10 267 6.4 11.3 0.00 0.00 0.00 47 1014.8
20260502051619 10 265 11.3 12.9 0.00 0.00 0.00 46 1014.6
20260502051117 10 261 8.0 9.7 0.00 0.00 0.00 47 1014.6
20260502050612 12 260 4.8 8.0 0.00 0.00 0.00 38 1014.7
20260502050109 12 277 6.4 9.7 0.00 0.00 0.00 40 1014.6
20260502045606 12 271 6.4 9.7 0.00 0.00 0.00 38 1014.7
20260502045103 11 277 8.0 9.7 0.00 0.00 0.00 41 1014.5
20260502044559 12 267 9.7 9.7 0.00 0.00 0.00 40 1014.6
20260502044056 11 252 9.7 12.9 0.00 0.00 0.00 41 1014.3
20260502043554 12 255 9.7 11.3 0.00 0.00 0.00 39 1014.3
20260502043050 12 262 8.0 11.3 0.00 0.00 0.00 40 1014.6
20260502042545 11 257 11.3 12.9 0.00 0.00 0.00 43 1014.2
20260502042043 13 267 6.4 9.7 0.00 0.00 0.00 38 1014.5
20260502041540 12 271 8.0 9.7 0.00 0.00 0.00 40 1014.2
20260502041037 11 265 8.0 9.7 0.00 0.00 0.00 42 1014.5
20260502040533 12 267 6.4 8.0 0.00 0.00 0.00 41 1014.0
20260502040031 13 267 6.4 8.0 0.00 0.00 0.00 37 1014.0
20260502035526 13 225 1.6 3.2 0.00 0.00 0.00 34 1014.2
20260502035024 13 154 3.2 6.4 0.00 0.00 0.00 36 1014.2
20260502034522 15 231 4.8 6.4 0.00 0.00 0.00 33 1014.1
20260502034020 15 258 4.8 6.4 0.00 0.00 0.00 33 1013.9
20260502033518 13 267 6.4 9.7 0.00 0.00 0.00 38 1013.8
20260502033015 13 255 6.4 9.7 0.00 0.00 0.00 41 1014.1
20260502032511 15 243 4.8 4.8 0.00 0.00 0.00 35 1014.1
20260502032008 15 241 4.8 6.4 0.00 0.00 0.00 36 1013.8
20260502031506 15 193 1.6 4.8 0.00 0.00 0.00 37 1013.8
20260502031004 15 269 3.2 6.4 0.00 0.00 0.00 34 1013.8
20260502030502 15 258 4.8 6.4 0.00 0.00 0.00 35 1013.8
20260502030000 15 274 4.8 6.4 0.00 0.00 0.00 35 1013.7
20260502025456 13 266 6.4 8.0 0.00 0.00 0.00 40 1013.8
20260502024954 16 312 3.2 3.2 0.00 0.00 0.00 32 1013.7
20260502024452 17 290 3.2 3.2 0.00 0.00 0.00 31 1013.6
20260502023950 17 300 1.6 4.8 0.00 0.00 0.00 31 1013.5
20260502023447 17 290 0.0 3.2 0.00 0.00 0.00 31 1013.6
20260502022945 17 285 3.2 3.2 0.00 0.00 0.00 31 1013.6
20260502022441 17 205 0.0 3.2 0.00 0.00 0.00 31 1013.3
20260502021938 17 155 1.6 3.2 0.00 0.00 0.00 31 1013.2
20260502021436 17 106 1.6 3.2 0.00 0.00 0.00 30 1013.3
20260502020933 17 148 3.2 3.2 0.00 0.00 0.00 33 1013.6
20260502020431 18 132 0.0 1.6 0.00 0.00 0.00 31 1013.3
20260502015927 18 27 3.2 4.8 0.00 0.00 0.00 31 1013.5
20260502015425 18 22 0.0 6.4 0.00 0.00 0.00 31 1013.1
20260502014921 18 38 3.2 6.4 0.00 0.00 0.00 31 1013.3
20260502014418 18 19 6.4 8.0 0.00 0.00 0.00 29 1013.2